This is the latest recevied weather packets stored in our database for station/object AG7BI. If no packets are shown the sender has not sent any weather packets the latest 10 day(s).
| Time | Temp. | Humidity | Pressure | Rain* | Wind** | Luminosity | Snow |
|---|---|---|---|---|---|---|---|
| 1777920652 | 20° C | 55% | 1011.1 hPa | 0 mm | - | - | - |
| 1777920352 | 20° C | 54% | 1011.4 hPa | 0 mm | - | - | - |
| 1777920052 | 20° C | 55% | 1011.4 hPa | 0 mm | - | - | - |
| 1777919752 | 20° C | 55% | 1011.4 hPa | 0 mm | - | - | - |
| 1777919452 | 20° C | 54% | 1011.4 hPa | 0 mm | - | - | - |
| 1777919152 | 20° C | 55% | 1011.4 hPa | 0 mm | - | - | - |
| 1777918852 | 20° C | 55% | 1011.1 hPa | 0 mm | - | - | - |
| 1777918552 | 20.56° C | 54% | 1011.1 hPa | 0 mm | - | - | - |
| 1777918252 | 20.56° C | 54% | 1011 hPa | 0 mm | - | - | - |
| 1777917952 | 20.56° C | 55% | 1011.2 hPa | 0 mm | - | - | - |
| 1777917652 | 20° C | 59% | 1011.1 hPa | 0 mm | - | - | - |
| 1777917352 | 20° C | 58% | 1011.1 hPa | 0 mm | - | - | - |
| 1777917052 | 19.44° C | 57% | 1011 hPa | 0 mm | - | - | - |
| 1777916752 | 19.44° C | 60% | 1011.2 hPa | 0 mm | - | - | - |
| 1777916452 | 19.44° C | 56% | 1011.1 hPa | 0 mm | - | - | - |
| 1777916152 | 18.89° C | 61% | 1011.2 hPa | 0 mm | - | - | - |
| 1777915852 | 18.89° C | 60% | 1011.2 hPa | 0 mm | - | - | - |
| 1777915552 | 18.89° C | 57% | 1011.3 hPa | 0 mm | - | - | - |
| 1777915252 | 18.89° C | 58% | 1011.2 hPa | 0 mm | - | - | - |
| 1777914952 | 18.33° C | 61% | 1011.3 hPa | 0 mm | - | - | - |
| 1777914652 | 17.78° C | 59% | 1011.1 hPa | 0 mm | - | - | - |
| 1777914352 | 17.22° C | 59% | 1011.2 hPa | 0 mm | - | - | - |
| 1777914052 | 17.22° C | 63% | 1011.1 hPa | 0 mm | - | - | - |
| 1777913752 | 16.67° C | 69% | 1011 hPa | 0 mm | - | - | - |
| 1777913453 | 16.67° C | 70% | 1011.2 hPa | 0 mm | - | - | - |
* Rain latest hour (hover to see other rain measurements)
** Current wind speed in m/s (hover to see current wind gust speed)